Location: Dos Palmas
(32.4468°N, 116.8732°W)
Time: 00:29:41
(UTC+00:00)

SJ 16-02 - Pass Details

Date: 20 June 2021
Orbit: 606 x 616 km, 75.0° (Epoch: 01 August)

Event Time Altitude Azimuth Distance (km) Brightness Sun altitude
Rises 07:03:53 0° 4° (N) 2,865 5.8 -33.1°
Reaches altitude 10° 07:06:51 10° 26° (NNE) 1,957 4.5 -33.2°
Enters shadow 07:07:57 14° 39° (NE) 1,722 4.0 -33.3°
